Home   Weather   Rancho Cucamonga   Past weeks

Flag for USA Past Weather in Rancho Cucamonga, California, USA — Yesterday and Last 2 Weeks

Now
48 °F

Passing clouds.


Feels Like: 48 °F
Forecast: 42 / 51 °F
Wind: No wind

Location: Ontario International Airport

Current Time: Feb 27, 2017 at 1:18:03 am

Latest Report: Feb 26, 2017 at 11:53 pm


Visibility: 10 mi

Pressure: 29.98 "Hg

Humidity: 80%

Dew Point: 42 °F

Location of Rancho CucamongaLocation

Past Weather in Rancho Cucamonga — Graph

°F

Rancho Cucamonga Temperature Yesterday

Maximum temperature yesterday: 54 °F (at 11:53 am)
Minimum temperature yesterday: 45 °F (at 5:53 am)
Average temperature yesterday: 49 °F

High & Low Weather Summary for the Past Weeks

 TemperatureHumidityPressure
High76 °F (Feb 15, 1:53 pm)100% (Feb 17, 8:53 pm)30.34 "Hg (Feb 17, 8:53 pm)
Low36 °F (Feb 24, 5:53 am)17% (Feb 15, 1:53 pm)29.49 "Hg (Feb 17, 6:53 pm)
Average55 °F70%30.00 "Hg
* Reported Feb 11 11:53 pm — Feb 26 11:53 pm, Rancho Cucamonga, Weather by CustomWeather, © 2017

Note: Actual official high and low records may vary slightly from our data, if they occured in-between our weather recording intervals... More about our weather records

Advertising

Rancho Cucamonga Weather History for the Previous 24 Hours

Scroll right to see more
 ConditionsComfort  
Time TempWeatherWind HumidityBarometerVisibility
11:53 pm
Sun, Feb 26
48 °FPassing clouds.No wind80%29.98 "Hg10 mi
10:53 pm47 °FPassing clouds.5 mph83%29.98 "Hg10 mi
9:53 pm47 °FPassing clouds.5 mph86%29.98 "Hg10 mi
8:53 pm48 °FPassing clouds.9 mph83%29.99 "Hg10 mi
7:53 pm49 °FPassing clouds.7 mph80%29.98 "Hg10 mi
6:53 pm50 °FPartly cloudy.7 mph80%29.97 "Hg10 mi
5:53 pm50 °FPartly cloudy.8 mph83%29.96 "Hg10 mi
5:26 pm50 °FPartly sunny.10 mph89%29.95 "Hg10 mi
4:53 pm50 °FBroken clouds.8 mph93%29.95 "Hg10 mi
3:53 pm52 °FCloudy.7 mph83%29.94 "Hg9 mi
2:53 pm53 °FCloudy.6 mph74%29.93 "Hg10 mi
1:53 pm54 °FLight rain. Cloudy.6 mph74%29.94 "Hg10 mi
1:32 pm54 °FLight rain. Mostly cloudy.5 mph72%29.95 "Hg10 mi
12:53 pm53 °FPartly sunny.6 mph66%29.96 "Hg10 mi
11:53 am54 °FBroken clouds.3 mph72%30.00 "Hg10 mi
10:53 am51 °FCloudy.3 mph74%30.03 "Hg10 mi
9:53 am50 °FCloudy.3 mph74%30.02 "Hg10 mi
8:53 am48 °FPartly sunny.5 mph86%30.01 "Hg10 mi
7:53 am47 °FLight rain. Broken clouds.5 mph86%30.01 "Hg10 mi
6:53 am45 °FPartly sunny.No wind93%30.00 "Hg10 mi
5:53 am45 °FLight rain. Mostly cloudy.3 mph93%29.99 "Hg8 mi
4:53 am46 °FRain. Fog.6 mph96%29.98 "Hg4 mi
3:53 am47 °FLight rain. Fog.8 mph86%29.97 "Hg6 mi
2:53 am48 °FMostly cloudy.3 mph86%29.96 "Hg10 mi
1:53 am47 °FOvercast.5 mph86%29.98 "Hg10 mi
Weather by CustomWeather, © 2017

See weather overviewHow to use our weather pages